Wind_Speed
25 24 24 24 23 23 23 23 24 24 24 25 26 26 27 27 28 28 29 29 30 30 31 32 32 33 33 33 34 34 35 36 36 37 37 38 38 39 39 40 40 41 41
27 26 26 25 24 24 25 25 25 26 27 28 28 28 27 28 28 29 30 30 31 32 32 33 34 34 34 34 35 35 36 37 37 38 38 39 40 40 41 41 42 42 43
29 28 27 27 26 26 26 27 27 28 29 29 29 29 30 29 30 31 31 31 32 32 33 34 34 35 35 35 36 37 38 38 39 39 40 41 41 42 43 43 44 44 44
31 30 29 28 27 28 28 28 29 29 30 30 30 31 31 31 31 32 32 33 33 33 34 34 35 35 36 37 38 38 39 40 40 41 41 42 42 43 43 44 45 45 46
33 32 32 31 30 30 30 30 30 31 31 32 32 32 32 32 33 33 33 33 34 34 34 34 35 36 37 38 39 40 41 41 41 42 42 43 43 44 45 46 47 48 48
35 35 34 34 33 33 33 33 32 32 32 33 33 33 33 33 34 34 34 35 35 34 34 35 36 37 38 39 40 41 42 42 42 43 44 44 45 46 46 47 48 49 50
36 36 36 36 36 36 36 34 33 33 33 33 33 34 34 34 34 35 35 35 35 35 35 36 37 38 39 41 42 43 43 44 44 44 45 46 47 47 48 48 49 50 50
38 37 37 37 37 37 37 36 34 34 34 34 33 34 34 33 34 35 35 35 36 37 37 38 38 39 41 42 43 44 44 45 45 46 47 47 48 48 49 49 50 50 50
39 38 39 38 37 37 37 37 36 36 35 35 35 35 35 35 36 36 36 36 37 38 38 39 40 41 43 44 45 45 46 46 47 47 48 48 49 49 50 51 50 50 49
40 40 40 39 38 38 38 37 37 37 36 36 36 36 36 36 37 37 37 37 37 38 38 40 41 43 44 45 46 46 46 47 47 48 49 49 50 51 51 50 49 48 47
41 41 40 40 39 38 38 37 38 37 37 37 37 37 38 38 39 39 38 38 39 40 41 42 43 45 46 46 46 46 47 48 49 49 50 50 51 50 50 49 47 47 47
42 42 42 41 40 39 38 37 37 38 38 38 38 39 39 39 39 39 39 39 40 41 42 43 44 45 46 46 47 47 48 49 49 50 50 50 49 49 49 48 47 47 47
43 41 41 40 40 40 39 38 38 39 39 39 40 40 40 40 40 40 41 41 41 42 43 44 45 45 46 47 48 48 49 49 49 50 50 49 49 48 47 46 46 46 46
42 42 40 40 40 40 40 40 39 39 40 40 40 40 41 40 41 42 43 43 43 43 43 44 44 45 46 47 48 49 49 49 49 49 49 48 47 47 45 45 45 45 45
41 41 40 40 40 40 40 41 40 40 40 41 40 40 41 41 41 43 44 45 45 44 43 44 45 45 46 47 48 49 49 49 49 48 47 47 46 45 44 44 44 44 44
41 41 40 40 40 41 41 41 41 40 40 41 42 42 41 41 42 43 44 45 46 45 44 44 45 46 47 47 47 47 47 48 48 48 47 46 46 44 44 43 43 43 43
42 40 41 40 40 40 40 40 40 40 41 41 42 42 42 42 43 45 45 45 45 45 45 44 45 46 46 46 46 46 47 47 46 46 46 45 44 43 43 42 41 41 41
41 41 40 40 40 40 40 40 40 40 41 41 42 42 42 42 43 45 45 45 45 45 45 45 45 45 46 46 46 46 47 46 46 45 44 43 43 42 40 40 40 39 39
42 41 40 41 41 41 40 40 40 40 40 41 40 41 41 43 44 45 45 44 44 45 45 45 44 44 46 46 46 47 47 46 45 44 43 42 40 39 39 39 39 39 39
42 41 40 41 41 41 41 40 40 40 40 40 40 41 42 43 43 44 43 43 44 44 44 44 44 44 45 45 45 45 44 44 44 43 42 40 39 38 38 39 39 38 37
42 42 42 42 42 41 40 41 41 41 41 40 40 41 41 41 42 42 42 42 42 42 42 43 44 44 44 43 44 43 43 42 42 42 40 38 38 39 39 38 38 37 36
42 42 42 42 41 40 40 40 41 41 41 41 41 41 41 41 42 41 41 41 41 41 41 43 43 43 42 43 43 42 42 41 41 40 37 36 37 37 37 36 36 36 34
42 42 42 42 41 40 40 40 40 40 40 41 41 41 41 42 41 40 40 39 39 40 41 42 42 42 42 41 41 42 42 41 40 38 35 35 35 36 36 35 34 33 33
43 42 43 42 42 42 42 41 40 40 40 41 40 40 40 40 39 39 38 39 39 40 41 41 41 41 41 41 40 41 40 40 38 36 35 35 35 35 35 34 32 31 32
43 42 42 42 42 41 41 41 40 39 40 39 38 38 38 38 38 38 38 39 39 40 41 40 40 41 40 40 40 39 38 37 36 35 34 35 34 33 33 33 31 30 29
42 41 41 41 40 39 39 39 38 38 38 38 37 37 37 36 36 37 37 37 37 38 39 38 38 39 38 38 38 38 37 36 34 33 33 33 33 32 30 29 28 27 27
Wind_Direction
257 261 265 269 273 277 281 285 289 290 292 294 296 298 301 303 304 305 306 306 307 308 308 308 308 309 309 309 309 309 308 308 307 306 305 304 303 303 302 301 299 298 297
256 259 263 267 271 275 279 284 288 291 294 295 294 296 299 302 303 304 306 306 307 307 307 308 308 308 308 308 309 309 309 309 308 307 307 306 304 303 302 301 300 299 298
256 258 261 266 270 274 278 282 286 289 291 293 295 295 297 299 301 303 305 305 306 306 307 307 308 308 308 308 308 309 309 309 308 308 307 305 304 303 303 302 301 299 298
256 258 261 266 270 274 277 280 283 286 289 292 293 295 297 298 300 303 304 305 305 305 306 307 308 308 308 309 309 309 309 309 309 308 307 306 306 305 304 303 302 301 300
256 258 262 266 270 274 277 280 282 285 288 289 291 294 296 298 300 302 303 304 305 305 306 306 307 307 307 308 309 309 309 309 308 308 307 307 306 306 305 303 302 301 300
256 258 262 266 270 272 276 280 282 284 287 289 290 292 294 296 299 301 302 303 303 304 304 305 306 306 307 308 309 309 309 308 307 307 306 306 306 306 305 304 303 302 301
255 259 264 267 270 272 276 279 282 283 285 287 289 290 293 296 297 299 301 301 302 303 304 305 306 307 308 308 309 309 308 308 306 306 306 306 306 306 306 305 304 303 302
257 260 262 266 270 273 276 278 280 283 284 286 288 290 292 294 296 298 299 299 300 302 303 305 306 307 307 308 308 308 308 308 307 307 307 307 307 307 306 305 305 303 302
257 260 263 266 270 273 276 278 279 282 284 285 287 289 290 292 294 296 297 298 299 301 303 304 306 306 307 308 307 308 307 307 308 308 308 307 307 307 307 306 305 303 302
257 260 263 265 270 273 276 277 278 281 283 284 287 287 289 291 293 295 296 298 300 302 303 305 306 307 307 308 308 308 308 308 308 308 309 309 308 307 307 306 305 304 304
258 261 263 266 270 272 275 276 277 280 281 283 285 287 289 290 292 295 296 297 300 301 303 304 305 306 308 308 308 309 308 309 309 309 309 309 309 309 307 306 305 305 305
258 260 263 266 268 271 274 276 278 280 281 282 284 287 289 290 292 295 296 298 300 301 303 304 305 306 307 308 309 308 309 309 309 309 309 309 309 309 308 307 305 306 305
258 261 262 263 266 269 272 275 277 281 281 282 284 286 288 290 292 295 296 298 301 302 302 303 304 306 307 308 309 310 310 311 311 311 311 310 310 309 309 307 307 307 306
258 259 260 263 266 269 271 274 277 279 281 283 286 286 288 290 293 294 297 298 299 300 302 303 305 306 307 308 309 310 311 311 312 312 312 312 312 311 309 309 309 308 306
258 259 261 263 266 268 270 273 276 278 281 283 286 287 289 291 293 294 297 298 299 300 301 302 304 306 307 309 310 310 310 311 311 312 313 313 313 312 311 310 310 309 308
257 260 262 264 265 267 269 273 276 278 280 283 285 286 289 290 292 295 298 299 299 301 302 303 305 306 308 309 310 312 312 312 311 311 312 313 313 312 312 312 312 311 311
256 259 262 263 264 267 269 272 276 279 281 283 285 286 287 289 291 295 297 298 300 301 303 304 305 306 308 309 311 312 312 313 312 312 313 313 314 313 314 314 314 313 312
257 259 261 264 266 268 269 272 275 278 281 283 284 285 287 289 291 294 295 297 299 300 302 304 305 307 308 310 311 312 313 313 314 314 314 315 315 315 314 315 316 316 316
257 259 262 264 265 267 270 273 274 277 280 282 284 285 287 289 291 293 294 296 298 301 303 304 305 307 309 310 312 313 313 314 315 315 315 315 316 316 316 317 317 317 317
258 260 262 265 266 268 269 271 273 276 279 282 284 287 289 290 291 293 294 295 297 300 302 304 306 308 309 310 311 313 313 314 316 316 316 316 316 318 318 317 318 318 318
259 261 262 265 266 268 270 271 273 275 278 281 284 287 289 291 292 293 293 295 296 299 301 303 305 307 309 310 311 313 314 316 316 317 316 315 316 317 318 318 318 319 320
260 261 263 264 266 268 270 271 273 275 277 280 283 286 288 290 292 293 294 295 296 299 301 303 305 307 308 310 311 313 315 316 316 316 316 316 317 318 318 317 318 319 319
259 261 262 263 265 267 270 271 273 275 277 279 282 284 286 288 290 292 294 296 297 300 302 304 305 306 308 310 312 313 314 315 316 316 316 317 318 319 318 318 318 320 321
258 260 262 263 265 267 269 271 274 276 277 279 282 284 285 287 288 290 292 295 297 300 303 304 305 306 308 310 312 313 314 316 317 316 317 319 319 320 319 318 318 319 320
259 260 262 263 265 267 269 271 274 276 277 279 281 282 284 286 287 289 292 295 297 301 303 305 305 306 308 310 311 313 314 315 316 316 317 318 319 319 320 320 319 320 320
259 259 261 263 264 266 267 269 271 274 277 278 280 282 284 284 286 289 292 295 297 300 302 304 305 307 310 311 312 313 313 314 315 314 315 317 318 319 321 321 322 324 324
Height
5836 5836 5837 5838 5838 5838 5838 5837 5837 5836 5834 5833 5832 5831 5829 5827 5825 5823 5820 5818 5815 5812 5809 5806 5803 5800 5797 5794 5790 5787 5783 5780 5776 5772 5768 5764 5760 5756 5752 5749 5745 5741 5738
5830 5831 5832 5833 5833 5833 5833 5833 5832 5831 5830 5828 5827 5825 5824 5822 5820 5818 5815 5812 5810 5807 5804 5800 5797 5794 5791 5787 5783 5780 5776 5772 5768 5764 5760 5756 5751 5747 5743 5739 5735 5731 5727
5824 5825 5826 5827 5828 5828 5828 5827 5827 5826 5824 5823 5822 5820 5818 5816 5814 5812 5809 5807 5804 5801 5798 5794 5791 5787 5784 5780 5776 5772 5768 5764 5760 5756 5751 5747 5742 5738 5733 5729 5725 5720 5716
5818 5819 5820 5821 5821 5822 5822 5822 5821 5820 5819 5817 5816 5814 5813 5810 5808 5806 5803 5801 5798 5795 5791 5788 5784 5780 5777 5773 5769 5765 5760 5756 5751 5747 5742 5737 5733 5728 5723 5719 5714 5710 5705
5812 5813 5814 5815 5815 5815 5815 5815 5815 5814 5813 5812 5810 5809 5807 5805 5802 5800 5797 5794 5791 5788 5784 5781 5777 5774 5770 5766 5761 5757 5752 5747 5742 5738 5733 5728 5723 5718 5713 5708 5703 5698 5693
5805 5806 5807 5808 5808 5809 5808 5808 5808 5807 5806 5805 5804 5802 5800 5798 5796 5793 5790 5787 5784 5781 5777 5774 5770 5767 5762 5758 5753 5749 5744 5738 5733 5729 5724 5718 5713 5708 5703 5697 5692 5686 5681
5798 5799 5800 5801 5801 5802 5802 5801 5801 5800 5799 5798 5797 5796 5794 5792 5789 5786 5783 5780 5777 5774 5770 5767 5763 5759 5755 5750 5745 5740 5735 5729 5724 5719 5714 5708 5703 5697 5691 5685 5680 5674 5668
5790 5792 5792 5793 5794 5794 5794 5794 5794 5793 5792 5791 5790 5789 5787 5786 5783 5780 5776 5773 5770 5766 5763 5759 5755 5751 5746 5741 5736 5731 5725 5720 5714 5709 5703 5697 5692 5686 5680 5674 5668 5662 5656
5783 5784 5785 5785 5786 5786 5786 5786 5786 5785 5784 5783 5782 5781 5779 5778 5776 5773 5770 5766 5762 5759 5755 5751 5747 5742 5737 5732 5727 5721 5716 5710 5704 5698 5692 5686 5680 5674 5668 5661 5655 5649 5643
5774 5776 5777 5777 5778 5778 5778 5778 5778 5777 5776 5775 5774 5773 5771 5769 5767 5766 5763 5759 5755 5751 5747 5742 5738 5733 5728 5722 5717 5711 5705 5699 5694 5688 5681 5675 5669 5662 5655 5649 5642 5636 5630
5766 5768 5769 5769 5770 5770 5770 5770 5770 5769 5768 5767 5766 5765 5763 5761 5758 5757 5755 5752 5748 5743 5738 5734 5729 5723 5718 5713 5707 5701 5695 5689 5683 5677 5670 5664 5657 5650 5643 5636 5630 5624 5619
5757 5759 5760 5761 5762 5762 5762 5762 5761 5761 5760 5759 5758 5756 5755 5753 5750 5748 5746 5743 5739 5735 5730 5725 5719 5714 5709 5703 5697 5691 5685 5679 5672 5666 5659 5652 5645 5638 5632 5625 5619 5613 5607
5749 5750 5751 5752 5753 5753 5753 5753 5753 5753 5752 5751 5750 5748 5746 5744 5742 5739 5737 5734 5730 5726 5721 5715 5709 5704 5699 5693 5688 5681 5675 5668 5661 5654 5647 5641 5634 5627 5620 5614 5608 5602 5596
5740 5741 5742 5743 5744 5745 5745 5745 5745 5744 5743 5742 5741 5739 5737 5735 5732 5730 5727 5724 5721 5717 5712 5706 5700 5695 5689 5683 5677 5671 5664 5658 5651 5643 5637 5629 5622 5616 5610 5603 5597 5591 5585
5730 5732 5733 5734 5735 5736 5736 5736 5736 5735 5734 5733 5732 5730 5728 5726 5723 5720 5717 5713 5709 5706 5703 5697 5691 5685 5679 5673 5667 5660 5654 5647 5640 5633 5626 5619 5612 5605 5599 5593 5586 5580 5574
5721 5722 5724 5725 5726 5726 5726 5726 5726 5726 5725 5724 5723 5721 5719 5717 5713 5710 5707 5702 5698 5694 5691 5687 5681 5675 5669 5663 5656 5650 5643 5636 5629 5622 5616 5609 5602 5595 5589 5582 5576 5569 5563
5711 5712 5714 5715 5716 5716 5717 5717 5717 5716 5715 5714 5713 5711 5709 5707 5704 5700 5696 5692 5688 5684 5680 5677 5671 5665 5659 5653 5647 5640 5633 5626 5619 5612 5605 5598 5592 5586 5579 5573 5566 5560 5554
5701 5702 5704 5705 5706 5706 5707 5707 5707 5707 5706 5704 5703 5701 5699 5697 5694 5690 5686 5682 5678 5674 5670 5666 5661 5655 5649 5643 5637 5631 5624 5617 5610 5603 5596 5589 5583 5577 5570 5564 5558 5551 5545
5691 5692 5694 5695 5696 5696 5697 5697 5697 5697 5695 5694 5693 5691 5689 5686 5683 5680 5676 5672 5668 5664 5660 5655 5651 5645 5640 5634 5628 5621 5614 5607 5600 5593 5587 5580 5574 5568 5562 5556 5550 5544 5537
5680 5682 5684 5684 5685 5686 5687 5687 5687 5686 5686 5685 5683 5681 5678 5676 5672 5669 5666 5662 5659 5655 5650 5646 5641 5636 5630 5624 5618 5613 5606 5599 5592 5585 5579 5573 5566 5560 5554 5549 5543 5537 5530
5670 5672 5673 5674 5675 5676 5676 5677 5677 5676 5676 5675 5673 5671 5668 5665 5662 5659 5655 5652 5649 5646 5641 5637 5632 5627 5621 5615 5610 5604 5597 5591 5585 5578 5572 5566 5559 5554 5547 5541 5535 5529 5523
5659 5661 5663 5664 5665 5666 5666 5666 5666 5666 5665 5664 5663 5661 5658 5656 5652 5649 5645 5642 5639 5636 5632 5628 5623 5618 5612 5606 5600 5595 5589 5584 5578 5572 5565 5559 5552 5546 5540 5534 5528 5522 5516
5649 5651 5652 5654 5654 5655 5655 5656 5655 5655 5655 5654 5653 5651 5649 5646 5643 5640 5637 5634 5630 5626 5623 5618 5614 5608 5603 5598 5593 5587 5581 5575 5569 5562 5557 5552 5546 5540 5534 5527 5521 5516 5510
5638 5639 5641 5643 5644 5644 5645 5645 5645 5645 5644 5644 5643 5641 5639 5636 5634 5632 5629 5626 5622 5618 5614 5610 5606 5600 5594 5588 5583 5578 5573 5568 5562 5555 5549 5545 5540 5534 5527 5521 5515 5509 5504
5627 5628 5630 5631 5632 5633 5634 5635 5635 5634 5634 5633 5632 5631 5629 5627 5625 5623 5620 5618 5614 5610 5605 5601 5596 5591 5586 5580 5575 5570 5566 5560 5556 5550 5543 5538 5533 5528 5522 5516 5510 5504 5499
5615 5617 5619 5620 5622 5623 5623 5624 5624 5624 5624 5623 5622 5621 5619 5618 5615 5613 5611 5609 5606 5602 5598 5593 5589 5584 5578 5573 5568 5563 5558 5553 5548 5543 5538 5532 5527 5522 5518 5512 5506 5500 5494